{"data":{"norad_id":54868,"epoch":"2026-09-20T22:20:03.560064Z","epoch_age_seconds":56094,"freshness":"FRESH","line1":"1 54868U 22177BA  26263.93059676  .00000238  00000+0  18198-4 0  9997","line2":"2 54868  43.0037  98.6605 0001683 268.4821  91.5837 15.27574128206950","mean_motion":15.27574128,"eccentricity":0.0001683,"inclination_deg":43.0037,"raan_deg":98.6605,"arg_perigee_deg":268.4821,"mean_anomaly_deg":91.5837,"bstar":1.8198e-5,"rev_number":20695,"period_min":94.267111075345,"perigee_km":481.91193839725,"apogee_km":484.22141955559,"semimajor_km":6861.2036789764,"source":"CELESTRAK","updated_at":"2026-09-21T09:00:33.162142Z"}}